[Iaude] MPEC U216: 2023 UQ6 [a=1.56,e=0.40,i=29.6,H=25.3]
    mpec at marsden.cfa.harvard.edu 
    mpec at marsden.cfa.harvard.edu
       
    Mon Oct 23 16:25:15 EDT 2023
    
    
  
M.P.E.C. 2023-U216                             Issued 2023 October 23, 20:23 UT
     The Minor Planet Electronic Circulars contain information on unusual
         minor planets, routine data on comets and natural satellites,
         and occasional editorial announcements.  They are published
    on behalf of Division F of the International Astronomical Union by the
          Minor Planet Center, Smithsonian Astrophysical Observatory,
                          Cambridge, MA 02138, U.S.A.
			  
             Prepared using the Tamkin Foundation Computer Network
                              MPC at CFA.HARVARD.EDU
            URL https://www.minorplanetcenter.net/    ISSN 1523-6714
                                    2023 UQ6                                    
Observations:
     K23U06Q*KC2023 10 22.00181 03 34 05.33 +23 35 27.2          19.7 GXEU216L51
     K23U06Q KC2023 10 22.00285 03 34 05.25 +23 34 20.2          19.0 GXEU216L51
     K23U06Q KC2023 10 22.00388 03 34 05.10 +23 33 14.8          18.7 GXEU216L51
     K23U06Q KC2023 10 22.11468 03 33 53.18 +21 36 13.6          18.9 GXEU216L51
     K23U06Q KC2023 10 22.11604 03 33 53.06 +21 34 48.5          19.4 GXEU216L51
     K23U06Q KC2023 10 22.11739 03 33 52.94 +21 33 23.9          18.6 GXEU216L51
     K23U06Q KC2023 10 22.12004 03 33 52.70 +21 30 37.0          18.7 GXEU216L51
     K23U06Q KC2023 10 22.12139 03 33 52.62 +21 29 11.7          18.4 GXEU216L51
     K23U06Q KC2023 10 22.12275 03 33 52.54 +21 27 46.8          19.2 GXEU216L51
     K23U06Q KB2023 10 22.16053 03 34 15.31 +20 48 54.0          18.5 rZEU216H36
     K23U06Q KB2023 10 22.16490 03 34 14.97 +20 44 25.5          18.7 rZEU216H36
     K23U06Q KB2023 10 22.16922 03 34 14.61 +20 40 00.2          18.7 rZEU216H36
     K23U06Q KC2023 10 22.26512 03 34 04.57 +19 02 35.5          19.3 VqEU216734
     K23U06Q KC2023 10 22.26777 03 34 04.23 +18 59 54.8          19.0 VqEU216734
     K23U06Q KC2023 10 22.27035 03 34 03.94 +18 57 19.3          19.1 VqEU216734
     K23U06Q KC2023 10 22.85625 03 33 47.66 +09 45 06.1          18.7 GXEU216L51
     K23U06Q KC2023 10 22.85796 03 33 47.50 +09 43 36.6          18.6 GXEU216L51
     K23U06Q KC2023 10 22.85967 03 33 47.34 +09 42 07.6          19.2 GXEU216L51
     K23U06Q KC2023 10 22.89087403 33 48.24 +09 15 03.8          19.2 GVEU216104
     K23U06Q KC2023 10 22.89883503 33 47.60 +09 08 14.2          18.7 GVEU216104
     K23U06Q KC2023 10 22.90325803 33 47.23 +09 04 26.4                VEU216104
     K23U06Q KB2023 10 22.93555303 33 45.082+08 41 20.96         19.3 VZEU216M49
     K23U06Q KB2023 10 22.94223403 33 44.304+08 35 40.72         19.6 VZEU216M49
     K23U06Q KB2023 10 22.94892403 33 43.528+08 30 00.21         19.6 VZEU216M49
     K23U06Q hC2023 10 22.97432103 33 40.12 +08 04 03.2          18.7 GVEU216L01
     K23U06Q hC2023 10 22.97583803 33 39.98 +08 02 47.0          18.9 GVEU216L01
     K23U06Q hC2023 10 22.98038603 33 39.51 +07 58 58.2          18.7 GVEU216L01
     K23U06Q KC2023 10 23.01689403 33 38.484+07 28 07.39         18.9 GVEU216J95
     K23U06Q KC2023 10 23.01860603 33 38.335+07 26 42.32         18.8 GVEU216J95
     K23U06Q KB2023 10 23.02000 03 33 36.211+07 25 38.53         18.5 GXEU216K74
     K23U06Q KC2023 10 23.02035903 33 38.162+07 25 14.70         19.3 GVEU216J95
     K23U06Q KC2023 10 23.02209403 33 38.009+07 23 48.37         19.4 GVEU216J95
     K23U06Q KB2023 10 23.02811 03 33 35.438+07 18 54.47         18.8 GXEU216K74
     K23U06Q KB2023 10 23.03624 03 33 34.714+07 12 11.56         18.6 GXEU216K74
     K23U06Q KC2023 10 23.23276703 33 34.73 +04 35 02.6          19.7 VuEU216H21
     K23U06Q KC2023 10 23.23434903 33 34.59 +04 33 48.8          19.9 VuEU216H21
     K23U06Q KC2023 10 23.23593003 33 34.44 +04 32 35.2          19.7 VuEU216H21
     K23U06Q KC2023 10 23.23751203 33 34.28 +04 31 21.4          19.6 VuEU216H21
     K23U06Q KC2023 10 23.23909503 33 34.12 +04 30 07.9          19.6 VuEU216H21
     K23U06Q KC2023 10 23.24083503 33 33.96 +04 28 46.9          19.5 VuEU216H21
Observer details:
104 San Marcello Pistoiese.  Observers P. Bacci, M. Maestripieri.  Measurers
    P. Bacci, L. Tesi, G. Fagioli.  0.60-m F4 Reflector + CCD.
734 Farpoint Observatory, Eskridge.  Observers D. Cromer, G. Hug, D. Goodin,
    R. Valentine.  Measurer D. Cromer.  0.69-m f/3.54 reflector + CCD.
H21 Astronomical Research Observatory, Westfield.  Observer R. Holmes.
    Measurers T. Linder, R. Holmes, L. Horn.  0.81-m f/4.0 astrograph + CCD.
H36 Sandlot Observatory, Scranton.  Observer G. Hug.  0.56-m f/4.8 reflector +
    CMO.
J95 Great Shefford.  Observer P. Birtwhistle.  0.41-m f/6.3 Schmidt-Cassegrain
    + CCD.
K74 Muensterschwarzach Observatory, Schwarzach.  Observer C. Gerhard.  0.20-m
    f/1.5 Schmidt + CMO.
L01 Visnjan Observatory, Tican.  Observer K. Korlevic.  1.0-m f/2.9 reflector
    + CCD.
L51 MARGO, Nauchnyi.  Observer G. Borisov.  0.50-m f/1.9 reflector + CCD.
M49 IAS Remote Observatory, Hakos.  Observers D. Husar, M. Junius.  Measurer
    D. Husar.  0.25-m f/4.5 reflector + CMO.
Orbital elements:
2023 UQ6                                                 Earth MOID = 0.0268 AU
Epoch 2023 Sept. 13.0 TT = JDT 2460200.5                Veres                   
M 358.96076              (2000.0)            P               Q                  
n   0.50623631     Peri.  135.19898     +0.91805610     +0.31532992             
a   1.5591953      Node   209.11905     -0.31273939     +0.94852809             
e   0.3968607      Incl.   29.59007     +0.24365357     +0.02935125             
P   1.95           H   25.39          G   0.15           U   9                  
Residuals in seconds of arc
231022 L51  0.2-  0.5+    231022 734  0.1+  0.2+    231023 J95  0.2+  0.1+
231022 L51  0.4+  0.1-    231022 L51  0.1-  0.1+    231023 K74  0.1-  0.0
231022 L51  0.1+  0.3+    231022 L51  0.2-  0.3-    231023 J95  0.0   0.2-
231022 L51  0.0   0.2+    231022 L51  0.3-  0.2-    231023 J95  0.0   0.2-
231022 L51  0.0   0.6+    231022 104  0.1+  0.6-    231023 K74  0.3-  0.4-
231022 L51  0.1-  0.8+    231022 104  0.1-  0.1+    231023 K74  0.3+  0.0
231022 L51  0.3-  0.2+    231022 104  0.2-  0.2-    231023 H21  0.1-  0.0
231022 L51  0.2+  0.4-    231022 M49  0.3+  0.3+    231023 H21  0.1+  0.0
231022 L51  0.7+  0.1+    231022 M49  0.0   0.5+    231023 H21  0.1+  0.1+
231022 H36  0.4-  0.7-    231022 M49  0.1-  0.4+    231023 H21  0.1-  0.1+
231022 H36  0.1-  0.5-    231022 L01  0.3-  0.2-    231023 H21  0.1-  0.3+
231022 H36  0.1+  0.4-    231022 L01  0.2-  0.1+    231023 H21  0.0   0.3+
231022 734  0.2+  0.3+    231022 L01  0.5-  0.6+
231022 734  0.2-  0.2-    231023 J95  0.2+  0.1-
Ephemeris:
2023 UQ6                 a,e,i = 1.56, 0.40, 30                  q = 0.9404
Date    TT    R. A. (2000) Decl.     Delta      r    Elong.  Phase     V
2023 09 23    15 26 54.4 +56 13 46   0.2835  0.9446    69.9    93.7    25.9
...
2023 10 08    15 31 16.0 +63 57 56   0.1392  0.9742    75.6    96.4    24.5
...
2023 10 16    15 25 40.4 +81 23 02   0.06222 1.0004    91.2    85.3    22.3
...
2023 10 22    03 34 08.1 +23 39 51   0.03249 1.0239   150.8    28.3    19.3
2023 10 23    03 33 35.9 +07 45 38   0.03665 1.0281   153.7    25.4    19.4
2023 10 24    03 33 10.0 -04 11 19   0.04299 1.0324   150.3    28.5    19.9
...
2023 10 30    03 31 15.9 -31 52 52   0.09733 1.0597   131.0    45.0    22.2
...
2023 11 07    03 28 55.5 -39 46 34   0.1786  1.0995   123.3    48.9    23.7
...
2023 11 22    03 25 37.8 -41 54 08   0.3338  1.1817   117.9    47.6    25.2
M. P. C. Staff               (C) Copyright 2023 MPC           M.P.E.C. 2023-U216
    
    
More information about the Iaude
mailing list